Tracking 20083 objects as of 8-Dec-2019
HD Live streaming from Space Station
objects crossing your sky now

COSMOS 2219

Track COSMOS 2219 now!
10-day predictions
COSMOS 2219 is classified as:


NORAD ID: 22219
Int'l Code: 1992-076A
Perigee: 842.4 km
Apogee: 865.7 km
Inclination: 71.1 °
Period: 101.9 minutes
Semi major axis: 7225 km
RCS: 7.421 m2 (large)
Launch date: November 17, 1992
Source: Commonwealth of Independent States (former USSR) (CIS)
Launch site: TYURATAM MISSILE AND SPACE COMPLEX (TTMTR)
aabbcc
Your satellite tracking list
Your tracking list is empty




NASA's NSSDC Master Catalog

Two Line Element Set (TLE):
1 22219U 92076A   19341.81891730  .00000215  00000-0  13882-3 0  9998
2 22219  71.0609 110.1162 0016098  87.9817 272.3149 14.13644383395919
Source of the keplerian elements: AFSPC